Weather History for Spencer, IA

Change the Weather History Date:

Wednesday, January 23, 2013

  Actual Average Record
Temperature  
Mean Temperature 10 °F -  
Max Temperature 21 °F 28 °F 58 °F (1981)
Min Temperature -4 °F 8 °F -18 °F (2011)
Degree Days  
Heating Degree Days 56    
Moisture  
Dew Point 3 °F    
Average Humidity 68    
Maximum Humidity 80    
Minimum Humidity 56    
Precipitation  
Precipitation 0.00 in - - ()
Sea Level Pressure  
Sea Level Pressure 30.34 in    
Wind  
Wind Speed 13 mph (NNW)    
Max Wind Speed 23 mph    
Max Gust Speed 31 mph    
Visibility 10 miles    
Events      
Averages and records for this station are not official NWS values.
T = Trace of Precipitation, MM = Missing Value Source: NWS Daily Summary

Daily Weather History Graph

Daily Weather History Graph

Search for Another Location

Airport:

Trip Planner

Search our weather history database for the weather conditions in past years. The results will help you decide how hot, cold, wet, or windy it might be!

Date:

Astronomy

Jan. 23, 2013 Rise Set
Actual Time 7:44 AM CST 5:21 PM CST
Civil Twilight 7:13 AM CST 5:52 PM CST
Nautical Twilight 6:38 AM CST 6:27 PM CST
Astronomical Twilight 6:05 AM CST 7:00 PM CST
Moon 2:31 PM CST (1/23) 4:57 AM CST (1/23)
Length of Visible Light 10h 38m
Length of Day
9h 37m
Waxing Gibbous, 89% of the Moon is Illuminated
Jan 23
Waxing Gibbous
Jan 26
Full
Feb 3
Last Quarter
Feb 10
New
Feb 17
First Quarter

Hourly Weather History & Observations

Time (CST) Temp. Windchill Dew Point Humidity Pressure Visibility Wind Dir Wind Speed Gust Speed Precip Events Conditions
12:53 AM 16.0 °F 2.3 °F 8.1 °F 71% 30.24 in 10.0 mi SSW 12.7 mph - N/A   Overcast
1:53 AM 16.0 °F 2.9 °F 8.1 °F 71% 30.22 in 10.0 mi SSW 11.5 mph - N/A   Overcast
2:53 AM 15.1 °F 2.5 °F 7.0 °F 70% 30.21 in 10.0 mi SSW 10.4 mph - N/A   Overcast
3:53 AM 15.1 °F 5.2 °F 7.0 °F 70% 30.20 in 10.0 mi SW 6.9 mph - N/A   Overcast
4:53 AM 8.1 °F -2.0 °F 3.0 °F 80% 30.22 in 10.0 mi West 5.8 mph - N/A   Clear
5:53 AM 8.1 °F -0.5 °F 3.0 °F 80% 30.22 in 10.0 mi WNW 4.6 mph - N/A   Clear
6:53 AM 10.0 °F 1.8 °F 5.0 °F 80% 30.22 in 10.0 mi WNW 4.6 mph - N/A   Clear
7:53 AM 12.0 °F 0.5 °F 7.0 °F 80% 30.24 in 10.0 mi WNW 8.1 mph - N/A   Clear
8:53 AM 14.0 °F 2.9 °F 9.0 °F 80% 30.24 in 9.0 mi NNW 8.1 mph - N/A   Clear
9:53 AM 18.0 °F 3.1 °F 10.9 °F 74% 30.27 in 10.0 mi NNW 16.1 mph - N/A   Clear
10:29 AM 19.4 °F 5.0 °F 10.4 °F 68% 30.21 in 10.0 mi North 16.1 mph - N/A   Mostly Cloudy
10:41 AM 19.4 °F 4.5 °F 10.4 °F 68% 30.22 in 10.0 mi NNW 17.3 mph - N/A   Mostly Cloudy
10:53 AM 19.9 °F 6.2 °F 10.9 °F 68% 30.30 in 10.0 mi North 15.0 mph - 0.00 in   Mostly Cloudy
11:38 AM 19.4 °F 6.0 °F 10.4 °F 68% 30.23 in 10.0 mi NNW 13.8 mph - N/A   Scattered Clouds
11:53 AM 19.9 °F 5.2 °F 12.0 °F 71% 30.31 in 10.0 mi NNW 17.3 mph - N/A   Scattered Clouds
12:01 PM 21.2 °F 6.4 °F 12.2 °F 68% 30.24 in 10.0 mi NNW 18.4 mph - N/A   Mostly Cloudy
12:53 PM 19.9 °F 4.8 °F 10.9 °F 68% 30.31 in 8.0 mi NNW 18.4 mph - 0.00 in   Mostly Cloudy
1:34 PM 19.4 °F 4.1 °F 6.8 °F 58% 30.25 in 10.0 mi NNW 18.4 mph 29.9 mph 0.00 in   Scattered Clouds
1:53 PM 19.0 °F 3.2 °F 7.0 °F 59% 30.33 in 10.0 mi NNW 19.6 mph 26.5 mph 0.00 in   Clear
2:21 PM 17.6 °F 0.9 °F 8.6 °F 68% 30.27 in 10.0 mi NW 20.7 mph 25.3 mph N/A   Mostly Cloudy
2:53 PM 17.1 °F -0.3 °F 3.9 °F 56% 30.37 in 10.0 mi NNW 21.9 mph - N/A   Mostly Cloudy
3:02 PM 15.8 °F -2.3 °F 3.2 °F 58% 30.30 in 10.0 mi NNW 23.0 mph 28.8 mph N/A   Scattered Clouds
3:53 PM 12.9 °F -4.9 °F 1.0 °F 59% 30.40 in 10.0 mi North 19.6 mph 28.8 mph N/A   Clear
4:53 PM 9.0 °F -11.4 °F -2.0 °F 61% 30.47 in 10.0 mi NNW 23.0 mph 31.1 mph N/A   Clear
5:53 PM 5.0 °F -14.7 °F -5.1 °F 63% 30.50 in 10.0 mi NNW 18.4 mph - N/A   Clear
6:53 PM 1.9 °F -18.7 °F -6.0 °F 69% 30.54 in 10.0 mi North 18.4 mph - N/A   Clear
7:53 PM 1.0 °F -19.9 °F -11.0 °F 57% 30.55 in 10.0 mi North 18.4 mph - N/A   Clear
8:53 PM -0.0 °F -20.1 °F -11.9 °F 57% 30.58 in 10.0 mi North 16.1 mph - N/A   Clear
9:53 PM -2.0 °F -22.6 °F -11.9 °F 63% 30.58 in 10.0 mi North 16.1 mph - N/A   Clear
10:53 PM -2.9 °F -18.8 °F -11.9 °F 65% 30.62 in 10.0 mi North 9.2 mph - N/A   Clear
11:53 PM -4.0 °F -19.0 °F -13.0 °F 65% 30.64 in 10.0 mi North 8.1 mph - N/A   Clear